Location: Bakhuizen
(52.8696°N, 5.4575°E)
Time: 15:20:03
(UTC+00:00)

Cosmos 1833 - Pass Details

Date: 03 October 2021
Orbit: 835 x 864 km, 70.9° (Epoch: 15 October)

Event Time Altitude Azimuth Distance (km) Brightness Sun altitude
Rises 19:26:50 0° 315° (NW) 3,396 8.5 -21.1°
Reaches altitude 10° 19:30:55 10° 287° (WNW) 2,453 7.8 -21.7°
Maximum altitude 19:32:58 12° 265° (W) 2,301 7.3 -22.0°
Drops below altitude 10° 19:35:02 10° 243° (WSW) 2,447 7.1 -22.2°
Sets 19:39:06 0° 214° (SW) 3,376 7.4 -22.8°
